Showing default

TROOP-F2, 60557

Orbit data source: Space-Track

TROOP-F2, 60557 is a payload satellite owned by NearSpaceLaunch (US) in SSO that was launched on Fri, 16 Aug 2024 UTC via an FALCON 9 launch vehicle from the Air Force Western Test Range (AFWTR). Payload-class satellites include a variety of spacecraft equipped with specific instruments for various scientific and technological missions. These include communications satellites like Starlink; space stations such as the ISS; scientific satellites like the Hubble; Earth observation satellites from companies like Planet Labs, Umbra, and HawkEye 360; GPS; miniature CubeSats for education and research; and military/defense satellites.

Not visible in the next 10 days
Identifier
60557, 2024-149CT
Orbit
SSO
Country
Flag of USUS
Related business
Manufacturer
NearSpaceLaunch
Mission
Operational Commercial Technology
Bus & Motor
CUBESAT 6U, Unknown motor
Mass
10 kg wet, ~10 kg dry
Launch date (UTC)
2024-08-16 (1 year ago)
Launch vehicle
FALCON 9
Launch site
Air Force Western Test Range (AFWTR)
Object type
Payload
Rocket body
Debris
Shape & HBR
Box + 4 Pan, 0.3 m
Radar Cross Section
0.139 m², Medium (>0.1 m² and < 1m²)

Expand to show TLE details & history
Last TLE update: 12 hours ago

TLE from 12 hours ago
0 TROOP-F2
1 60557U 24149CT  26023.62200156  .00105048  00000-0  12599-2 0  9994
2 60557  97.3793 112.4379 0002055  28.5807 331.5563 15.60566606 80490
Epoch: 2026-01-23T14:55Z
TLE epoch observation values (Epoch: 2026-01-23T14:55:40.934Z)
Latitude
0.00002°
Longitude
125.55916°
Altitude
387.943 km
Speed
7.678 km/s
True Right ascension
07h 29m 45s
True Declination
0° 00' 00"
Sunlit
Object was in full shadow at epoch
Visualization orbit readout
Latitude
Unknown
Longitude
Unknown
Altitude
Unknown
Speed
Unknown
Apparent Right ascension
Unknown
Apparent Declination
Unknown
Sunlit
N/A
Visualization observer readout
Local Sidereal Time
04:12:08
Azimuth
Unknown
Elevation
Unknown
Doppler factor
Unknown
Orbital elements
Apogee altitude
384.32 km
Perigee altitude
381.541 km
Semi-major axis
6,761.067 km
Eccentricity
0.00021
Inclination
97.3793°
RAAN
112.4379°
Arg. of periapsis
28.5807°
True anomaly
331.54508°
Mean anomaly
331.5563°
Eccentric anomaly
331.55069°
Mean motion
3.90409 °/min
Orbital period
92.21 mins
BSTAR
0.0012599
Loading maneuver chart data...
Computing Atmospheric mass density...
Loading historical data...
Loading historical data...
Loading historical data...
Loading historical data...
Loading historical data...
Loading historical data...
Loading historical data...

Documentation

Showing up to 5 results
|